Orbital Elements at Epoch 2459200.5 (2020-Dec-17.0) TDB
Reference: JPL 15 (heliocentric ecliptic J2000)
Element | Value | Uncertainty (1-sigma) | Units |
e | .07475694522286366 | 4.4816e-08 | |
a | 2.397894720726229 | 1.6348e-08 | au |
q | 2.218635436438705 | 1.1088e-07 | au |
i | 5.540290645000442 | 5.1629e-06 | deg |
node | 287.6402609969162 | 6.87e-05 | deg |
peri | 163.1343924057564 | 8.3113e-05 | deg |
M | 224.4112450491042 | 4.7818e-05 | deg |
tp | 2459711.316322592042 (2022-May-11.81632259) | 0.00018189 | TDB |
period | 1356.262001223726 3.71 | 1.3869e-05 3.797e-08 | d yr |
n | .2654354392257394 | 2.7144e-09 | deg/d |
Q | 2.577154005013754 | 1.757e-08 | au |
|
| | Orbit Determination Parameters
Additional Information
|